www.pogodaiklimat.ru

Погода и климат >> Архив погоды >> Индия >> Гуджарат >> Веравал


ПОГОДА в Веравале

  • Прогноз погоды в Веравале
  • Монитор погоды в Веравале

АРХИВ ПОГОДЫ в Веравале

Время (UTC), дата Ветер
(напр.,м/с)
 
Видим.   Явления Облачность Т
(С)
Тd
(С)
f
(%)
Тe
(С)
Тes
(С)
Комфортность P
(гПа)
Po
(гПа)
Тmin
(С)
Tmax
(С)
R
(мм)
R24
(мм)
S
(см)
15 18.08 ЮЗ 3 4000 м 3/3 600 м
[Sc]
+27.8 +26.1 90 +42 +42 опасность
перегрева
1006.5 1005.6
18 18.08 Ю 3 4000 м 1/1 600 м
[Sc]
+27.6 +26.5 94 +42 +42 опасность
перегрева
1008.1 1007.2
21 18.08 ЮЗ 2 4000 м 3/3 600 м
[Sc]
+27.4 +26.0 92 +41 +41 опасность
перегрева
1007.0 1006.1
00 19.08 З 3 4000 м 4/4 600 м
[Sc]
+27.0 +25.6 92 +40 +40 очень
душно
1006.8 1005.9
03 19.08 ЮЗ 2 10 км 5/5 600 м
[Cu Sc]
+28.0 0.0 16 +26 +28 жарко 1007.9 1007.0 +26.8
06 19.08 З 3 10 км 6/5 600 м
[Cu Sc Ac trans]
+30.0 0.0 14 +27 +35 жарко 1009.1 1008.2
09 19.08 З 3 10 км 8/5 600 м
[Cu Sc Ac trans]
+29.6 0.0 15 +27 +32 жарко 1008.2 1007.3
12 19.08 З 3 10 км 5/4 600 м
[Cu Sc Ac trans]
+29.2 0.0 15 +27 +28 жарко 1007.1 1006.2 +30.4
15 19.08 З 2 4000 м 5/5 600 м
[Sc]
+28.0 +24.9 83 +40 +40 очень
душно
1008.0 1007.1
18 19.08 З 3 4000 м 6/4 600 м
[Sc Ac trans]
+27.8 +25.2 86 +40 +40 очень
душно
1009.5 1008.6
21 19.08 З 3 4000 м 3/3 600 м
[Sc]
+27.4 +25.4 89 +40 +40 очень
душно
1008.1 1007.2
00 20.08 З 3 4000 м 1/1 600 м
[Sc]
+27.2 +25.2 89 +39 +39 очень
душно
1007.8 1006.9
03 20.08 З 2 10 км 5/5 600 м
[Cu Sc Ci fib]
+28.2 0.0 16 +26 +28 жарко 1009.5 1008.6 +27.0
06 20.08 З 3 10 км 5/5 600 м
[Cu Sc]
+30.0 0.0 14 +27 +36 жарко 1010.1 1009.2
09 20.08 З 3 10 км 5/4 600 м
[Cu Sc Ac trans Ci fib]
+30.0 0.0 14 +27 +35 жарко 1008.3 1007.4
12 20.08 З 3 10 км 9/4 600 м
[Cu Sc Ac trans]
+29.2 0.0 15 +27 +27 жарко 1006.7 1005.8 +31.1
15 20.08 З 2 4000 м 3/3 600 м
[Sc]
+28.2 +25.9 87 +42 +42 опасность
перегрева
1007.8 1006.9
18 20.08 З 2 4000 м 5/1 600 м
[Sc Ac trans]
+28.0 +26.0 89 +42 +42 опасность
перегрева
1008.6 1007.7
21 20.08 З 2 4000 м 8/4 600 м
[Sc Ac trans]
+27.8 +25.8 89 +41 +41 опасность
перегрева
1007.4 1006.5
00 21.08 З 3 4000 м в посл. час морось 8/5 600 м
[Sc Ac trans]
+27.6 +25.6 89 +41 +41 опасность
перегрева
1007.1 1006.2 0.1
03 21.08 З 3 10 км 6/5 600 м
[Cu Sc Ac trans]
+28.2 0.0 16 +26 +28 жарко 1008.3 1007.4 +27.1 0.1
06 21.08 З 4 10 км 8/6 600 м
[Cu Sc Ac trans]
+30.0 0.0 14 +27 +31 жарко 1008.9 1008.0
09 21.08 З 5 10 км в посл. час морось 8/6 600 м
[Cu Sc Ac trans]
+30.2 0.0 14 +27 +30 жарко 1008.0 1007.1 0.0
12 21.08 З 4 10 км {морось} 6/4 750 м
[Cu Sc Ci sp]
+29.6 0.0 15 +27 +28 жарко 1006.5 1005.6 +31.1 0.0
15 21.08 З 3 4000 м 5/5 600 м
[Sc]
+28.2 +25.7 86 +42 +42 опасность
перегрева
1007.4 1006.5 0.0
18 21.08 З 3 4000 м 3/3 600 м
[Sc]
+27.6 +25.6 89 +41 +41 опасность
перегрева
1008.1 1007.2 0.0
21 21.08 З 3 4000 м 3/3 600 м
[Sc]
+27.8 +25.8 89 +41 +41 опасность
перегрева
1006.5 1005.6 0.0
00 22.08 З 3 4000 м 4/4 600 м
[Sc]
+27.4 +25.4 89 +40 +40 очень
душно
1006.5 1005.6 0.0
03 22.08 З 3 10 км 6/5 600 м
[Cu Sc Ac trans]
+28.2 0.0 16 +26 +28 жарко 1007.7 1006.8 +27.0 0.0
06 22.08 З 3 10 км 5/5 600 м
[Cu Sc]
+30.4 0.0 14 +27 +35 жарко 1007.7 1006.8
09 22.08 З 4 10 км 6/6 600 м
[Cu Sc]
+30.6 0.0 14 +28 +32 жарко 1006.5 1005.6
12 22.08 З 2 10 км 8/6 600 м
[Cu Sc Ac trans]
+29.6 0.0 15 +27 +28 жарко 1005.5 1004.6 +31.2
15 22.08 З 3 4000 м 3/3 600 м
[Sc]
+28.2 +25.7 86 +42 +42 опасность
перегрева
1006.2 1005.3
18 22.08 З 2 4000 м 3/3 600 м
[Sc]
+27.6 +25.0 86 +40 +40 очень
душно
1007.3 1006.4
21 22.08 З 3 4000 м 4/4 600 м
[Sc]
+27.4 +25.1 87 +39 +39 очень
душно
1006.7 1005.8
00 23.08 З 2 4000 м 3/3 600 м
[Sc]
+27.2 +25.2 89 +39 +39 очень
душно
1006.2 1005.3
03 23.08 З 1 10 км 4/4 600 м
[Cu Sc]
+28.4 0.0 16 +26 +29 жарко 1007.4 1006.5 +26.8
06 23.08 З 2 10 км 4/4 600 м
[Cu Sc]
+30.4 0.0 14 +27 +40 жарко 1007.6 1006.7
09 23.08 З 2 10 км 4/3 750 м
[Cu hum Ac trans Ci fib]
+30.0 0.0 14 +27 +40 жарко 1006.3 1005.4
12 23.08 ЮЗ 4 10 км 4/4 600 м
[Cu Sc]
+29.4 0.0 15 +27 +28 жарко 1005.3 1004.4 +31.3
15 23.08 ЮЗ 3 4000 м 8/8 600 м
[Sc]
+28.2 +25.9 87 +42 +42 опасность
перегрева
1006.6 1005.7
18 23.08 штиль 0 4000 м 1/1 600 м
[Sc]
+27.6 +25.6 89 +41 +41 опасность
перегрева
1007.4 1006.5
21 23.08 ЮЗ 2 4000 м 3/3 600 м
[Sc]
+27.4 +24.8 86 +39 +39 очень
душно
1006.3 1005.4
00 24.08 З 2 4000 м ясно +27.0 +24.4 86 +38 +38 очень
душно
1005.9 1005.0
03 24.08 штиль 0 10 км 5/1 750 м
[Cu med, cong Ci sp]
+29.0 0.0 15 +26 +31 жарко 1007.1 1006.2 +26.9
06 24.08 ЮЗ 3 10 км 5/3 600 м
[Cu Sc Ci fib]
+30.8 0.0 14 +28 +39 жарко 1007.6 1006.7
09 24.08 З 3 10 км 8/1 750 м
[Cu med, cong Ci sp]
+31.4 0.0 13 +28 +39 жарко 1005.7 1004.8
12 24.08 З 2 10 км 6/1 750 м
[Sc diur, vesp Ci sp]
+29.8 0.0 15 +27 +29 жарко 1004.4 1003.5 +32.0
15 24.08 З 2 4000 м 3/3 600 м
[Sc]
+28.2 +24.8 82 +40 +40 очень
душно
1006.0 1005.1
18 24.08 З 3 4000 м 1/1 600 м
[Sc]
+27.8 +24.6 83 +39 +39 очень
душно
1006.7 1005.8
21 24.08 З 2 4000 м 5/3 600 м
[Sc Ac trans]
+27.8 +24.9 84 +40 +40 очень
душно
1005.1 1004.2
00 25.08 З 2 4000 м 3/3 600 м
[Sc]
+27.6 +25.3 87 +40 +40 очень
душно
1005.0 1004.1
03 25.08 штиль 0 10 км {дождь} 5/1 750 м
[Cu med, cong Ci fib]
+28.2 0.0 16 +26 +31 жарко 1006.1 1005.2 +25.3 5
06 25.08 З 1 10 км 5/4 600 м
[Cu Sc Ci fib]
+30.4 0.0 14 +27 +40 жарко 1006.2 1005.3
09 25.08 З 3 10 км 8/3 750 м
[Cu med, cong Ac lent Cc]
+30.8 0.0 14 +28 +34 жарко 1004.5 1003.6
12 25.08 З 3 10 км 6/1 750 м
[Sc diur, vesp Ci sp]
+30.0 0.0 14 +27 +29 жарко 1003.3 1002.4 +31.3

 

Местоположение метеостанции Веравал (Гуджарат, Индия): широта 20.90 долгота 70.37 высота над уровнем моря 8 м.

В архиве по умолчанию представлена погода в Веравале за последнюю неделю. Архивные данные за месяц целиком и за предыдущие месяцы, начиная с января 2011 года, Вы можете получить, выбрав интересующий диапазон дат из раскрывающегося списка и нажав кнопку "Ввод!".


*Определитесь, кто Вы:
робот инопланетянин человек

Внимание! Время в таблицах - всемирное. Для получения местного времени необходимо прибавить поправку, которая равна 5.5 ч.

Смотрите также архив погоды в соседних городах и на ближайших метеорологических станциях:

Погода в Диу (Даман и Диу, Индия) (61 км)
Погода в Порбандаре (Гуджарат, Индия) (111 км)
Погода в Амрели (Гуджарат, Индия) (118 км)
Погода в Махьюве (Гуджарат, Индия) (148 км)
Погода в Раджкоте (Гуджарат, Индия) (161 км)
Погода в Дварке (Гуджарат, Индия) (211 км)
Погода в Бхавнагаре (Гуджарат, Индия) (212 км)
Погода в Охе (Гуджарат, Индия) (218 км)
Погода в Нью-Кандле (Гуджарат, Индия) (234 км)
Погода в Сурендранагаре (Гуджарат, Индия) (240 км)

Пояснения к столбцам:

Ветер - указаны скорость ветра в м/с - средняя за 10 мин, порывы в срок и между сроками (в фигурных скобках) и направление, откуда дует ветер: С - северный, СВ - северо-восточный, В - восточный, ЮВ - юго-восточный, Ю - южный, ЮЗ - юго-западный, З - западный, СЗ - северо-западный.
Видимость - горизонтальная дальность видимости в метрах или километрах. При видимости от 1 до 10 км при отсутствии осадков обычно наблюдается дымка, при ухудшении видимости до 1 км и менее - туман. В сухую погоду видимость может ухудшаться дымом, пылью или мглою.
Явления - указаны атмосферные явления, наблюдавшиеся в срок или в последний час перед сроком; фигурными скобками обозначены явления, наблюдавшиеся между сроками (за 1-3 часа до срока); квадратными скобками обозначены град или гололедные отложения с указанием их диаметра в мм.
Облачность - указаны через наклонную черту общая и нижняя облачность в баллах и высота нижней границы облаков в метрах; квадратными скобками обозначены формы облаков: Ci - перистые, Cs - перисто-слоистые, Cc - перисто-кучевые, Ac - высококучевые, As - высокослоистые, Sc - слоисто-кучевые, Ns - слоисто-дождевые, Cu - кучевые, Cb - кучево-дождевые. Подробнее классификацию облаков см. в Атласе облаков (PDF).
T - Температура воздуха - температура, измеренная на высоте 2 м над землей.
Td - Температура точки росы - температура, при понижении до которой содержащийся в воздухе водяной пар достигнет насыщения.
f - Относительная влажность воздуха - влажноcть воздуха, измеренная на высоте 2 м над землей.
Te - Эффективная температура - температура, которую ощущает одетый по сезону человек в тени. Характеристика душности погоды. При расчете учитывается влияние влажности воздуха и скорости ветра на теплоощущения человека.
Tes - Эффективная температура на солнце - температура, которую ощущает человек, с поправкой на солнечный нагрев. Характеристика знойности погоды. Зависит от высоты солнца над горизонтом, облачности и скорости ветра. Ночью, в пасмурную погоду, а также при ветре 12 м/с и более поправка равна нулю.
P - Атмосферное давление - приведенное к уровню моря атмосферное давление.
Po - Атмосферное давление - измеренное на уровне метеостанции атмосферное давление.
Tmin - Минимальная температура - минимум температуры воздуха на высоте 2 м над землей.
Tmax - Максимальная температура - максимум температуры воздуха на высоте 2 м над землей.
R - Количество осадков - Количество выпавших осадков за период времени, мм. При наведении курсора мыши на число - период времени, за который выпало указанное количество осадков.
R24 - Количество осадков - Количество выпавших осадков за 24 часа, мм.
S - Снежный покров - Высота снежного покрова, см. При наведении курсора мыши на число - состояние снежного покрова и степень покрытия местности в баллах.